Weather History for Lyndonville, VT

Change the Weather History Date:

Monday, December 9, 2013

  Actual Average (K1V4) Record (K1V4)
Temperature  
Mean Temperature 24 °F 26 °F  
Max Temperature 30 °F 34 °F 59 °F (1951)
Min Temperature 18 °F 18 °F -20 °F (1989)
Degree Days  
Heating Degree Days 41 39  
Month to date heating degree days 338  
Since 1 July heating degree days 1994  
Moisture  
Dew Point 21 °F    
Average Humidity 82    
Maximum Humidity 92    
Minimum Humidity 62    
Precipitation  
Precipitation 0.00 in 0.11 in 0.68 in (1896)
Month to date precipitation 0.97  
Year to date precipitation 37.39  
Sea Level Pressure  
Sea Level Pressure 30.05 in    
Wind  
Wind Speed 3 mph (SSE)    
Max Wind Speed 10 mph    
Max Gust Speed 18 mph    
Visibility 6 miles    
Events Snow    
T = Trace of Precipitation, MM = Missing Value Source: NWS Daily Summary

Daily Weather History Graph

Daily Weather History Graph

Search for Another Location

Airport:

Trip Planner

Search our weather history database for the weather conditions in past years. The results will help you decide how hot, cold, wet, or windy it might be!

Date:

Astronomy

Dec. 09, 2013 Rise Set
Actual Time 7:13 AM EST 4:07 PM EST
Civil Twilight 6:39 AM EST 4:41 PM EST
Nautical Twilight 6:03 AM EST 5:17 PM EST
Astronomical Twilight 5:27 AM EST 5:53 PM EST
Moon 11:50 AM EST (12/9) No Moon Set
Length of Visible Light 10h 01m
Length of Day
8h 54m
Waxing Crescent, 51% of the Moon is Illuminated
Dec 9
Waxing Crescent
Dec 17
Full
Dec 25
Last Quarter
Jan 1
New
Jan 7
First Quarter

Hourly Weather History & Observations

Time (EST) Temp. Windchill Dew Point Humidity Pressure Visibility Wind Dir Wind Speed Gust Speed Precip Events Conditions
12:15 AM 18.1 °F - 12.4 °F 78% 30.43 in 10.0 mi Calm Calm - N/A   Overcast
12:35 AM 18.0 °F - 12.2 °F 78% 30.43 in 10.0 mi Calm Calm - N/A   Overcast
12:55 AM 18.5 °F - 12.6 °F 78% 30.42 in 10.0 mi Calm Calm - N/A   Overcast
1:15 AM 18.5 °F - 12.7 °F 78% 30.41 in 10.0 mi Calm Calm - N/A   Overcast
1:35 AM 18.1 °F - 12.0 °F 77% 30.40 in 10.0 mi Calm Calm - N/A   Overcast
1:55 AM 18.1 °F - 11.5 °F 75% 30.38 in 10.0 mi Calm Calm - N/A   Overcast
2:15 AM 18.5 °F - 11.1 °F 73% 30.38 in 10.0 mi Calm Calm - N/A   Overcast
2:35 AM 19.0 °F - 11.3 °F 72% 30.37 in 10.0 mi Calm Calm - N/A   Overcast
2:55 AM 19.2 °F - 10.2 °F 68% 30.36 in 10.0 mi Calm Calm - N/A   Overcast
3:15 AM 18.9 °F - 12.4 °F 76% 30.36 in 10.0 mi Calm Calm - N/A   Overcast
3:35 AM 19.8 °F - 9.1 °F 63% 30.34 in 10.0 mi Calm Calm - N/A   Overcast
3:55 AM 20.1 °F 15.2 °F 9.1 °F 62% 30.33 in 10.0 mi South 3.5 mph - N/A   Overcast
4:15 AM 20.1 °F 15.2 °F 9.9 °F 64% 30.33 in 7.0 mi South 3.5 mph - N/A Snow Light Snow
4:35 AM 19.9 °F 14.9 °F 11.3 °F 69% 30.31 in 5.0 mi SE 3.5 mph - N/A Snow Light Snow
4:55 AM 19.8 °F 14.7 °F 11.7 °F 71% 30.30 in 7.0 mi SSE 3.5 mph - N/A Snow Light Snow
5:35 AM 19.4 °F 14.3 °F 13.6 °F 78% 30.27 in 7.0 mi South 3.5 mph - N/A Snow Light Snow
5:55 AM 19.9 °F 13.4 °F 13.8 °F 77% 30.25 in 10.0 mi SSE 4.6 mph - N/A   Overcast
6:15 AM 20.1 °F 13.6 °F 13.8 °F 77% 30.24 in 10.0 mi SSE 4.6 mph - N/A   Overcast
6:35 AM 20.3 °F 13.8 °F 14.2 °F 77% 30.23 in 5.0 mi South 4.6 mph - N/A Snow Light Snow
6:55 AM 20.5 °F 14.0 °F 14.9 °F 79% 30.21 in 5.0 mi South 4.6 mph - N/A Snow Light Snow
7:15 AM 20.7 °F - 15.1 °F 79% 30.20 in 7.0 mi Calm Calm - N/A Snow Light Snow
7:35 AM 20.7 °F - 15.4 °F 80% 30.19 in 7.0 mi Calm Calm - N/A   Overcast
7:55 AM 21.2 °F 16.4 °F 15.4 °F 78% 30.18 in 10.0 mi SSE 3.5 mph - N/A   Overcast
8:15 AM 21.9 °F 15.7 °F 14.9 °F 74% 30.17 in 10.0 mi SSE 4.6 mph - N/A   Overcast
8:35 AM 22.1 °F 15.9 °F 14.9 °F 74% 30.15 in 10.0 mi SSE 4.6 mph - N/A   Overcast
8:55 AM 22.5 °F 15.1 °F 15.3 °F 74% 30.15 in 5.0 mi SSE 5.8 mph - N/A Snow Light Snow
9:15 AM 22.6 °F 16.5 °F 16.2 °F 76% 30.13 in 2.5 mi SSE 4.6 mph - N/A Snow Light Snow
9:35 AM 22.8 °F 15.5 °F 17.1 °F 79% 30.11 in 5.0 mi SSE 5.8 mph - N/A Snow Light Snow
9:55 AM 23.5 °F 16.4 °F 18.0 °F 79% 30.09 in 7.0 mi SSE 5.8 mph - N/A   Overcast
10:15 AM 23.9 °F 16.8 °F 18.3 °F 79% 30.08 in 10.0 mi South 5.8 mph - N/A   Overcast
10:35 AM 24.1 °F 16.0 °F 18.5 °F 79% 30.06 in 10.0 mi SSE 6.9 mph - N/A   Overcast
10:55 AM 24.8 °F 19.1 °F 19.0 °F 79% 30.05 in 3.0 mi South 4.6 mph - N/A Snow Light Snow
11:15 AM 25.3 °F 18.5 °F 19.6 °F 79% 30.03 in 2.5 mi SSE 5.8 mph - N/A Snow Light Snow
11:35 AM 25.7 °F 17.1 °F 21.2 °F 83% 30.01 in 1.8 mi SE 8.1 mph - N/A Snow Light Snow
11:55 AM 25.9 °F 20.3 °F 22.1 °F 86% 29.99 in 1.5 mi SE 4.6 mph - N/A Snow Light Snow
12:15 PM 26.2 °F 20.7 °F 22.6 °F 86% 29.98 in 1.2 mi SE 4.6 mph - N/A Snow Light Snow
12:35 PM 26.6 °F 21.2 °F 23.2 °F 87% 29.97 in 1.2 mi SE 4.6 mph - N/A Snow Light Snow
12:55 PM 27.5 °F 20.2 °F 23.9 °F 86% 29.96 in 1.5 mi SSE 6.9 mph - N/A Snow Light Snow
1:15 PM 28.0 °F 21.7 °F 24.4 °F 86% 29.94 in 1.5 mi SSE 5.8 mph - N/A Snow Light Snow
1:35 PM 28.8 °F 20.9 °F 24.8 °F 85% 29.93 in 1.8 mi SSE 8.1 mph - N/A Snow Light Snow
1:55 PM 28.9 °F 21.9 °F 25.2 °F 86% 29.92 in 1.8 mi SSE 6.9 mph - N/A Snow Light Snow
2:15 PM 28.9 °F 21.1 °F 25.3 °F 86% 29.91 in 1.8 mi SSE 8.1 mph - N/A Snow Light Snow
2:35 PM 29.1 °F 21.3 °F 25.7 °F 87% 29.90 in 1.5 mi South 8.1 mph - N/A Snow Light Snow
2:55 PM 29.3 °F 23.2 °F 26.1 °F 88% 29.89 in 1.5 mi SSE 5.8 mph - N/A Snow Light Snow
3:15 PM 29.3 °F 20.8 °F 26.2 °F 88% 29.90 in 2.0 mi South 9.2 mph - N/A Snow Light Snow
3:35 PM 29.5 °F 21.8 °F 26.2 °F 88% 29.88 in 2.0 mi South 8.1 mph - N/A   Overcast
3:55 PM 29.7 °F 20.7 °F 26.4 °F 88% 29.87 in 4.0 mi South 10.4 mph 16.1 mph N/A   Overcast
4:15 PM 30.0 °F 21.1 °F 26.4 °F 86% 29.86 in 4.0 mi South 10.4 mph 18.4 mph N/A   Overcast
4:35 PM 29.8 °F 22.2 °F 26.6 °F 88% 29.86 in 5.0 mi South 8.1 mph - N/A   Overcast
4:55 PM 29.8 °F 23.9 °F 26.6 °F 88% 29.85 in 5.0 mi South 5.8 mph - N/A   Overcast
5:15 PM 29.7 °F - 26.6 °F 88% 29.85 in 2.5 mi Calm Calm - N/A Snow Light Snow
5:35 PM 29.7 °F 26.1 °F 27.0 °F 90% 29.86 in 1.8 mi SSW 3.5 mph - N/A Snow Light Snow
5:55 PM 29.7 °F 23.7 °F 27.0 °F 90% 29.86 in 1.5 mi South 5.8 mph - N/A Snow Light Snow
6:15 PM 29.7 °F 26.1 °F 27.0 °F 90% 29.84 in 2.5 mi SE 3.5 mph - N/A Snow Light Snow
6:35 PM 29.7 °F 24.7 °F 27.1 °F 90% 29.84 in 3.0 mi SSE 4.6 mph - N/A Snow Light Snow
6:55 PM 29.7 °F 24.7 °F 27.1 °F 90% 29.84 in 5.0 mi SSE 4.6 mph - N/A   Overcast
7:15 PM 29.3 °F 24.3 °F 27.1 °F 92% 29.84 in 5.0 mi SSE 4.6 mph - N/A   Overcast
7:35 PM 29.8 °F 23.0 °F 27.5 °F 91% 29.84 in 10.0 mi South 6.9 mph - N/A   Overcast
7:55 PM 29.8 °F 22.2 °F 27.7 °F 92% 29.83 in 10.0 mi SSE 8.1 mph - N/A   Overcast
8:15 PM 30.2 °F 21.9 °F 28.0 °F 92% 29.82 in 10.0 mi SSE 9.2 mph - N/A   Overcast
8:35 PM 30.2 °F 22.6 °F 27.9 °F 91% 29.82 in 10.0 mi South 8.1 mph - N/A   Overcast
8:55 PM 30.6 °F 23.8 °F 28.0 °F 90% 29.82 in 10.0 mi South 6.9 mph - N/A   Overcast
9:15 PM 30.7 °F - 27.5 °F 88% 29.82 in 10.0 mi Calm Calm - N/A   Overcast
9:35 PM 30.6 °F 27.1 °F 27.9 °F 90% 29.81 in 10.0 mi SE 3.5 mph - N/A   Overcast
9:55 PM 30.6 °F - 27.9 °F 90% 29.82 in 10.0 mi Calm Calm - N/A   Overcast
10:15 PM 30.6 °F 27.1 °F 27.9 °F 90% 29.82 in 2.0 mi SE 3.5 mph - N/A Snow Light Snow
10:35 PM 30.7 °F - 28.2 °F 90% 29.83 in 1.0 mi Calm Calm - N/A Snow Snow
10:55 PM 30.7 °F - 28.2 °F 90% 29.83 in 2.0 mi Calm Calm - N/A Snow Light Snow
11:15 PM 30.6 °F 25.8 °F 28.0 °F 90% 29.81 in 5.0 mi East 4.6 mph - N/A   Overcast
11:35 PM 30.6 °F 24.7 °F 28.2 °F 91% 29.82 in 10.0 mi SSE 5.8 mph - N/A   Overcast
11:55 PM 30.2 °F - 27.7 °F 90% 29.82 in 10.0 mi Calm Calm - N/A   Overcast